Back to Previous

Regional Weather Roundup

540 
ASUS44 KLZK 260705
RWRLZK

WEATHER ROUNDUP FOR ARKANSAS
NATIONAL WEATHER SERVICE LITTLE ROCK AR
200 AM CDT TUE MAY 26 2015

NOTE: "FAIR" INDICATES FEW OR NO CLOUDS BELOW 12,000 FEET WITH NO
SIGNIFICANT WEATHER AND/OR OBSTRUCTIONS TO VISIBILITY.

ARZ001-003-010-029-260800-
NORTHWEST ARKANSAS
  
CITY           SKY/WX    TMP DP  RH WIND       PRES   REMARKS
FAYETTEVILLE   CLOUDY    61  59  93 S10       29.87R                  
FORT SMITH     CLOUDY    63  59  87 SW6       29.87S                  
HARRISON       CLOUDY    61  59  93 S7        29.86R                  
BENTONVILLE    CLOUDY   N/A N/A N/A SW8       29.85R                  
ROGERS         CLOUDY    62  59  90 SW9       29.86R                  
SILOAM SPGS    CLOUDY    61  54  77 S10       29.88R                  
HIGHFILL       CLOUDY    62  59  90 S10       29.86R                  
$$

ARZ004-005-016-260800-
NORTH CENTRAL ARKANSAS
  
CITY           SKY/WX    TMP DP  RH WIND       PRES   REMARKS
BATESVILLE     CLOUDY    64  61  88 SE7       29.92F                  
FLIPPIN        CLOUDY    63  61  94 E8        29.80F                  
MTN HOME       CLOUDY    62  61  96 E10       29.83F                  
$$

ARZ040-041-260800-
WEST CENTRAL ARKANSAS
  
CITY           SKY/WX    TMP DP  RH WIND       PRES   REMARKS
MENA           CLOUDY    63  61  94 CALM      29.92F                  
MOUNT IDA      CLOUDY    61  59  93 CALM      29.88F                  
$$

ARZ009-017-025-026-028-260800-
NORTHEAST ARKANSAS
  
CITY           SKY/WX    TMP DP  RH WIND       PRES   REMARKS
CORNING        CLOUDY    68  66  94 CALM      29.93F                  
JONESBORO      CLOUDY    67  65  93 NW3       29.93F                  
NEWPORT        HVY RAIN  66  65  97 S8        29.95F FOG              
WALNUT RIDGE   CLOUDY    66  63  88 S5        29.93S                  
BLYTHEVILLE    CLOUDY    73  70  90 S8        29.96S                  
$$

ARZ022-023-033-042-044-260800-
CENTRAL ARKANSAS
  
CITY           SKY/WX    TMP DP  RH WIND       PRES   REMARKS
LITTLE ROCK    LGT RAIN  64  61  90 SE7       29.91F                  
N LITTLE ROCK    N/A     63  63 100 E6        29.91F                  
SEARCY         LGT RAIN  64  63  96 E5        29.93F                  
HOT SPRINGS    CLOUDY    62  60  93 SW8       29.90R                  
RUSSELLVILLE   CLOUDY    63  61  93 W6        29.87R                  
CLINTON        LGT RAIN  63  63 100 E6        29.84F                  
$$

ARZ036-260800-
EAST ARKANSAS
  
CITY           SKY/WX    TMP DP  RH WIND       PRES   REMARKS
WEST MEMPHIS   CLOUDY    73  70  90 S10       29.94F                  
$$

ARZ050-053-066-070-073-260800-
SOUTHWEST ARKANSAS
  
CITY           SKY/WX    TMP DP  RH WIND       PRES   REMARKS
ARKADELPHIA    LGT RAIN  63  63 100 W5        29.92R                  
CAMDEN         LGT RAIN  63  59  88 NE15G22   29.92F                  
TEXARKANA      CLOUDY    63  61  93 SW5       29.94S                  
EL DORADO      RAIN      62  60  93 E12G21    29.93F                  
$$

ARZ056-057-069-260800-
SOUTHEAST ARKANSAS
  
CITY           SKY/WX    TMP DP  RH WIND       PRES   REMARKS
PINE BLUFF     LGT RAIN  63  62  97 SE8       29.95F                  
STUTTGART      CLOUDY    64  61  88 MISG      29.93F                  
MONTICELLO     CLOUDY    63  63 100 S6        29.98F                  

$$




USA.gov is the U.S. government's official web portal to all federal, state and local government web resources and services.